Location: Ammerl�gen
(47.2167°N, 9.6000°E)
Time: 11:14:42
(UTC+00:00)

Meteor 1-4 Rocket - Pass Details

Date: 21 April 2021
Orbit: 448 x 499 km, 81.2° (Epoch: 06 May)

Event Time Altitude Azimuth Distance (km) Brightness Sun altitude
Exits shadow 21:19:05 36° 287° (WNW) 744 3.8 -24.8°
Drops below altitude 10° 21:22:22 10° 355° (N) 1,623 6.0 -25.1°
Sets 21:24:35 0° 4° (N) 2,513 7.0 -25.2°
